Location: Obersdorf
(47.4079°N, 10.2781°E)
Time: 02:54:33
(UTC+02:00)

COSMOS 2251 DEB - Pass Details

Date: 02 July 2022
Orbit: 490 x 568 km, 73.9° (Epoch: 16 August)

Event Time Altitude Azimuth Distance (km) Brightness Sun altitude
Rises 04:10:08 0° 157° (SSE) 2,764 ? -10.1°
Reaches altitude 10° 04:13:05 10° 134° (SE) 1,862 ? -9.8°
Maximum altitude 04:15:31 15° 98° (E) 1,538 ? -9.6°
Drops below altitude 10° 04:17:56 10° 62° (ENE) 1,846 ? -9.3°
Sets 04:20:51 0° 40° (NE) 2,728 ? -9.0°
